THOR ABLESTAR DEB, 659

Orbit data source: Space-Track

THOR ABLESTAR DEB, 659 is space debris in LEO originally from a launch on Thu, 29 Jun 1961 UTC launched from the Air Force Eastern Test Range (AFETR). Debris objects in space refer to the collection of defunct objects orbiting the Earth. Examples of debris include non-operational satellites, rocket bodies, and fragments generated from explosions, collisions, or faulty payload assembly.

Loading next visibility...
Identifier
659, 1961-015HL
Orbit
LEO
Country
Flag of USUS
Related business
Manufacturer
Unknown
Mission
Spacecraft
Bus & Motor
Unknown
Mass
Unknown
Launch date (UTC)
1961-06-29 (64 years ago)
Launch vehicle
Unknown
Launch site
Air Force Eastern Test Range (AFETR)
Object type
Payload
Rocket body
Debris
Shape & HBR
Unknown shape, 0.2 m
Radar Cross Section
Small (<0.1 m²)

Expand to show TLE details & history
Last TLE update: 14 hours ago

TLE from 14 hours ago
0 THOR ABLESTAR DEB
1 00659U 61015HL  25346.69634477  .00000180  00000-0  62672-3 0  9994
2 00659  67.1602 102.7263 0581733  44.4603  67.3138 12.66718717967403
Epoch: 2025-12-12T16:42Z
TLE epoch observation values (Epoch: 2025-12-12T16:42:44.188Z)
Latitude
54.50623°
Longitude
-85.58067°
Altitude
1,252.206 km
Speed
7.305 km/s
True Right ascension
16h 26m 57s
True Declination
54° 21' 15"
Sunlit
Object was in daylight at epoch
Visualization orbit readout
Latitude
Unknown
Longitude
Unknown
Altitude
Unknown
Speed
Unknown
Apparent Right ascension
Unknown
Apparent Declination
Unknown
Sunlit
N/A
Visualization observer readout
Local Sidereal Time
05:23:03
Azimuth
Unknown
Elevation
Unknown
Doppler factor
Unknown
Orbital elements
Apogee altitude
1,845.898 km
Perigee altitude
941.662 km
Semi-major axis
7,771.917 km
Eccentricity
0.05817
Inclination
67.1602°
RAAN
102.7263°
Arg. of periapsis
44.4603°
True anomaly
73.62862°
Mean anomaly
67.3138°
Eccentric anomaly
70.45483°
Mean motion
3.16775 °/min
Orbital period
113.65 mins
BSTAR
0.00062672
Loading maneuver chart data...
Computing Atmospheric mass density...
Loading historical data...
Loading historical data...
Loading historical data...
Loading historical data...
Loading historical data...
Loading historical data...
Loading historical data...

Documentation

Showing up to 5 results
|